Regional Weather Roundup
Issued by NWS

Home | Current Version | Previous Version | Text Only | Print | Product List | Glossary Off
Versions: 1 2 3 4 5 6 7 8 9 10 11 12 13 14 15 16 17 18 19 20 21 22 23 24 25 26 27 28 29 30 31 32 33 34 35 36 37 38 39 40 41 42 43 44 45 46 47 48 49 50

080
ASUS45 KBOU 201807
RWRCO

WEATHER ROUNDUP FOR COLORADO
NATIONAL WEATHER SERVICE DENVER/BOULDER CO
1200 PM MDT WED SEP 20 2017

NOTE: "FAIR" INDICATES FEW OR NO CLOUDS BELOW 12000 FEET WITH NO
SIGNIFICANT WEATHER AND/OR OBSTRUCTIONS TO VISIBILITY.

COZ001>005-013-030-031-201900-
...NORTHWEST COLORADO...

CITY           SKY/WX    TMP DP  RH WIND       PRES   REMARKS
CRAIG          FAIR      59  35  40 NE6       29.99F
HAYDEN         FAIR      56  35  45 E6        30.02F
MEEKER         FAIR      62  37  39 W3        29.98F
RABBIT EARS PA FAIR      45  37  76 SW7       30.17S
STEAMBOAT SPGS FAIR      52  40  65 CALM      30.02F
WALDEN         CLOUDY    54  34  47 SW17G23   30.06F
$$

COZ006>008-011-201900-
...WEST CENTRAL VALLEYS...

CITY           SKY/WX    TMP DP  RH WIND       PRES   REMARKS
GRAND JUNCTION FAIR      72  37  28 VRB5      29.92F
MONTROSE       FAIR      74  31  20 SW12G20   30.00F
EAGLE          MOSUNNY   70  30  23 W6G20     29.99F
RIFLE          FAIR      67  36  31 NW6       29.96F
DELTA          FAIR      77  32  19 S8        29.97F
NUCLA          FAIR      73  30  20 S17G24    30.05F
$$

COZ017>023-064>068-201900-
...SOUTHWEST COLORADO...

CITY           SKY/WX    TMP DP  RH WIND       PRES   REMARKS
DURANGO        FAIR      67  31  26 VRB3      30.13F
CORTEZ         FAIR      73  31  21 SW14      30.07F
PAGOSA SPRINGS FAIR      63  24  22 S5        30.19F
TELLURIDE      FAIR      63  25  24 S8G23     30.19S
WOLF CREEK PAS FAIR      43  27  52 S22G33    30.41S
$$

COZ009-010-012-014-032>034-037-058>063-201900-
...CENTRAL COLORADO...

CITY           SKY/WX    TMP DP  RH WIND       PRES   REMARKS
ASPEN          FAIR      69  23  17 SW12G25   30.04F
BUENA VISTA    FAIR      70  19  14 SW15G25   30.07S
COPPER MTN     FAIR      54  21  28 W17G32    30.28F
BERTHOUD PASS  FAIR      41  32  70 W28G40    30.27F
COTTONWOOD PAS   N/A     64  21  19 SW10      30.18F
GUNNISON       FAIR      66  29  24 S10       30.09F
KREMMLING      FAIR      72  30  21 W16G25    30.02F
LEADVILLE      FAIR      59  18  20 W15G21    30.15F
MONARCH PASS   FAIR      46  25  42 SW29G36   30.42R
SALIDA         FAIR      69  24  18 SE9G23    30.13F
SUNLIGHT       FAIR      54  28  37 S14G24    30.25F
WILKERSON PASS FAIR      54  23  30 SW20G30   30.26S
$$

COZ069>075-201900-
...SAN LUIS VALLEY/SANGRE DE CRISTO MOUNTAINS...

CITY           SKY/WX    TMP DP  RH WIND       PRES   REMARKS
ALAMOSA        FAIR      70  29  21 S21       30.11F
DEL NORTE      FAIR      67  28  23 S6        30.12F
LA VETA PASS   FAIR      59  27  29 S18G36    30.37F
SAGUACHE       FAIR      63  28  27 S12       30.13F
$$

COZ035-036-038>040-201900-
...NORTHERN COLORADO FRONT RANGE...

CITY           SKY/WX    TMP DP  RH WIND       PRES   REMARKS
DENVER INTL AP FAIR      73  30  20 S15       29.92F
DMNS CITY PARK   N/A     64  32  29 E10       29.93F
AURORA         MOSUNNY   69  33  26 SW10G17   29.94
FRONT RANGE AP MOSUNNY   72  30  21 SE17G31   29.95F
ERIE MUNI ARPT FAIR      64  31  28 W3        29.98F
BOULDER MUN AP FAIR      61  32  33 N7        29.94F
CENTENNIAL     FAIR      66  33  29 VRB5      29.94F
BROOMFIELD     MOSUNNY   63  32  31 NW5       29.96F
FORT COLLINS   FAIR      66  32  28 SE14G23   29.95F
LONGMONT       FAIR      68  35  29 CALM      29.95F
$$

COZ041-046-047-076>085-087-088-201900-
...PIKES PEAK/PALMER DIVIDE AND SOUTHERN FOOTHILLS...

CITY           SKY/WX    TMP DP  RH WIND       PRES   REMARKS
COLO. SPRINGS  FAIR      61  28  28 S29G37    30.05F
A. F. ACADEMY  FAIR      60  26  28 SE24      30.05F
SCHRIEVER AFB  FAIR      59  26  29 S20G25    30.07F
CHEYENNE MTN   NOT AVBL
ELLICOTT         N/A    N/A N/A N/A S15G22    30.06F
FALCON         FAIR      58  25  28 S28G33    30.09F
FORT CARSON    FAIR      62  28  28 S15       30.04F
LIMON          FAIR      63  24  22 S21       30.03F
MONUMENT HILL  FAIR      59  28  31 S28G37    30.04F
CANON CITY     SUNNY     64  34  32 E7        30.04F
WALSENBURG     FAIR      68  28  22 SE12G20   30.05F
TRINIDAD       FAIR      68  31  25 SE9       30.05F
$$

COZ042>045-048>051-090-091-201900-
...NORTHEAST COLORADO...

CITY           SKY/WX    TMP DP  RH WIND       PRES   REMARKS
GREELEY ARPT   FAIR      68  32  26 SE22G29   29.94F
AKRON          FAIR      66  27  23 S9        30.00F
BURLINGTON     FAIR      70  27  20 E8        30.00F
WRAY           FAIR      70  23  17 CALM      29.98F
YUMA           FAIR      63  28  27 CALM      29.99F
STERLING       FAIR      66  34  30 S6        29.96F
HOLYOKE        NOT AVBL
FORT MORGAN    FAIR      67  27  22 SE17      29.98F
$$

COZ086-089-092>099-201900-
...SOUTHEAST COLORADO...

CITY           SKY/WX    TMP DP  RH WIND       PRES   REMARKS
PUEBLO         FAIR      66  27  23 SE9       30.02F
LA JUNTA       FAIR      67  30  25 S8        30.02F
LAMAR          FAIR      70  29  21 CALM      29.99F
SPRINGFIELD      N/A     70  29  21 E8        30.02
$$




USA.gov is the U.S. government's official web portal to all federal, state and local government web resources and services.